Location: Nitra
(0.0000°N, 18.0833°E)
Time: 19:11:24
(UTC+02:00)

A-11 Canister half - Pass Details

Date: 09 April 2023
Orbit: 1526 x 1682 km, 47.3° (Epoch: 08 June)

Event Time Altitude Azimuth Distance (km) Brightness Sun altitude
Rises 19:40:29 0° 348° (NNW) 4,826 11.9 -12.7°
Reaches altitude 10° 19:45:00 10° 5° (N) 3,812 11.1 -13.8°
Maximum altitude 19:51:14 19° 46° (NE) 3,128 10.3 -15.3°
Enters shadow 19:54:31 16° 70° (ENE) 3,309 10.2 -16.2°
Drops below altitude 10° 19:57:20 10° 87° (E) 3,740 - -16.9°
Sets 20:01:38 0° 104° (ESE) 4,704 - -17.9°
